Regional Weather Roundup
Issued by NWS

Home | Current Version | Previous Version | Text Only | Print | Product List | Glossary On
Versions: 1 2 3 4 5 6 7 8 9 10 11 12 13 14 15 16 17 18 19 20 21 22 23 24 25 26 27 28 29 30 31 32 33 34 35 36 37 38 39 40 41 42 43 44 45 46 47 48 49 50
000
ASUS44 KLIX 270110
RWRLA
LOUISIANA WEATHER ROUNDUP
NATIONAL WEATHER SERVICE NEW ORLEANS LA
700 PM CST WED NOV 26 2014

NOTE: "FAIR" INDICATES FEW OR NO CLOUDS BELOW 12,000 FEET WITH NO
      SIGNIFICANT WEATHER AND/OR OBSTRUCTIONS TO VISIBILITY.
      SKY/WX - SKY CONDITION AND SIGNIFICANT WEATHER.
      TMP - AIR TEMPERATURE.    DP   - DEWPOINT TEMPERATURE.
      RH  - RELATIVE HUMIDITY.  PRES - PRESSURE.
      HX  - HEAT INDEX.         WCI  - WIND CHILL INDEX.

*  THESE STATIONS ARE NOT NWS OR FAA STATIONS AND ARE NOT UNDER
   NWS QUALITY CONTROL.

LAZ040-048-061>063-065-066-069-270200-
SOUTHEAST LOUISIANA

CITY           SKY/WX    TMP DP  RH WIND       PRES   REMARKS
N.O. AUDUBON     N/A     57  44  62 MISG        N/A
N.O. INTL ARPT CLEAR     59  42  53 SW9       30.21R
N.O. LAKEFRONT CLEAR     61  43  51 SW13      30.21R
N.O. DOWNTOWN* FAIR      61  39  44 S9        30.22R
SLIDELL        CLEAR     61  43  51 VRB7      30.19R
BATON ROUGE    CLEAR     58  39  49 SW9       30.20R
BOOTHVILLE     CLEAR     60  46  59 W9        30.24S
BELLE CHASSE   CLEAR     52  41  66 SW7       30.22R
BOGALUSA*        N/A     54  42  63 SW6       30.18R
NEW ROADS*     FAIR      56  41  56 SW5       30.20S
GONZALES*      FAIR      58  46  63 SW5       30.21R
HAMMOND*       CLEAR     61  39  44 W8        30.21R
HOUMA*         CLEAR     56  46  70 SW3       30.23S
PORT FOURCHON* CLEAR     61  50  67 SW9G15    30.28S

$$

LAZ041-044-053-054-270200-
SOUTHWEST LOUISIANA

CITY           SKY/WX    TMP DP  RH WIND       PRES   REMARKS
LAKE CHARLES   CLEAR     59  49  69 SW7       30.23R
LAFAYETTE      CLEAR     60  47  61 W12       30.22R
PATTERSON      CLEAR     54  46  76 SW7       30.25R
SALT POINT       N/A     63  55  75 W6        30.23R
NEW IBERIA     CLEAR     59  47  64 SW9       30.23R
CHENAULT AIRPK CLEAR     61  48  63 SW9       30.23R

$$

LAZ027-028-270200-
CENTRAL LOUISIANA

CITY           SKY/WX    TMP DP  RH WIND       PRES   REMARKS
FORT POLK      CLEAR     53  44  71 NW1       30.21R
ALEXANDRIA INT CLEAR     55  42  61 W3        30.18R
ALEXANDRIA     CLEAR     50  41  71 CALM      30.19R

$$

LAZ001-002-270200-
NORTHWEST LOUISIANA

CITY           SKY/WX    TMP DP  RH WIND       PRES   REMARKS
SHREVEPORT     PTCLDY    57  35  43 W9        30.21R
BARKSDALE AFB  CLEAR     56  33  41 NW8       30.21R
DTN SHREVEPORT CLEAR     57  33  40 NW7       30.21R

$$

LAZ014-016-270200-
NORTHEAST LOUISIANA

CITY           SKY/WX    TMP DP  RH WIND       PRES   REMARKS
MONROE         CLEAR     54  35  48 NW6       30.18R
TALLULAH       CLEAR     54  37  52 W7        30.16R

$$




USA.gov is the U.S. government's official web portal to all federal, state and local government web resources and services.